Location: Bittkow
(50.3000°N, 19.0000°E)
Time: 02:44:00
(UTC+00:00)

Cosmos 2369 Rocket - Visible Passes

Search period start: 21 January 2021 00:00
Search period end: 31 January 2021 00:00
Orbit: 829 x 852 km, 71.0° (Epoch: 20 January)

Date Brightness Start Highest point End Pass type
(mag) Time Alt. Az. Time Alt. Az. Time Alt. Az.
21 Jan 4.7 03:06:38 10° N 03:08:39 12° NNE 03:10:42 10° NE visible
21 Jan 3.6 04:49:27 10° NNW 04:54:33 33° NE 04:59:36 10° ESE visible
22 Jan 4.7 02:51:36 10° N 02:53:11 12° NNE 02:55:05 10° NE visible
22 Jan 3.7 04:34:05 10° NNW 04:39:08 32° NE 04:44:07 10° ESE visible
23 Jan 4.8 02:36:37 11° N 02:37:43 11° NNE 02:39:28 10° NE visible
23 Jan 3.7 04:18:44 10° NNW 04:23:43 31° NE 04:28:39 10° ESE visible
24 Jan 4.8 02:21:39 11° NNE 02:22:16 11° NNE 02:23:49 10° NE visible
24 Jan 3.8 04:03:26 10° NNW 04:08:18 30° NE 04:13:10 10° ESE visible
24 Jan 2.3 05:47:12 10° NW 05:52:44 63° WSW 05:58:14 10° SSE visible
25 Jan 4.9 02:06:42 11° NNE 02:06:48 11° NNE 02:08:10 10° NNE visible
25 Jan 3.9 03:48:30 12° NNW 03:52:52 29° NE 03:57:42 10° ESE visible
25 Jan 2.2 05:31:48 10° NNW 05:37:22 66° WSW 05:42:53 10° SSE visible
26 Jan 5.0 01:51:47 10° NNE 01:51:47 10° NNE 01:52:30 10° NNE visible
26 Jan 3.9 03:33:35 14° N 03:37:27 28° NE 03:42:13 10° ESE visible
26 Jan 2.2 05:16:24 10° NNW 05:21:59 69° WSW 05:27:31 10° SSE visible
27 Jan 4.0 03:18:43 16° N 03:22:01 27° NE 03:26:43 10° E visible
27 Jan 2.1 05:01:00 10° NNW 05:06:37 73° WSW 05:12:10 10° SSE visible
28 Jan 4.0 03:03:54 18° N 03:06:36 26° NE 03:11:13 10° E visible
28 Jan 2.1 04:45:42 10° NNW 04:51:14 76° WSW 04:56:48 10° SSE visible
29 Jan 4.1 02:49:09 20° N 02:51:10 25° NE 02:55:44 10° E visible
29 Jan 2.1 04:30:57 14° NNW 04:35:51 80° WSW 04:41:26 10° SSE visible
30 Jan 4.1 02:34:29 22° NNE 02:35:44 24° NE 02:40:13 10° E visible
30 Jan 2.1 04:16:17 19° NNW 04:20:28 84° WSW 04:26:04 10° SSE visible
